TimeCDT,TemperatureF,Dew PointF,Humidity,Sea Level PressureIn,VisibilityMPH,Wind Direction,Wind SpeedMPH,Gust SpeedMPH,PrecipitationIn,Events,Conditions,WindDirDegrees,DateUTC
1:15 AM,50.4,32.0,49,29.71,10.0,NW,25.3,36.8,N/A,,Overcast,320,2012-10-19 06:15:00
1:35 AM,50.2,32.0,50,29.71,10.0,NNW,21.9,29.9,N/A,,Overcast,330,2012-10-19 06:35:00
1:55 AM,50.2,32.0,50,29.71,10.0,NW,23.0,31.1,N/A,,Overcast,320,2012-10-19 06:55:00
2:15 AM,50.4,31.8,49,29.71,10.0,NW,27.6,36.8,N/A,,Overcast,310,2012-10-19 07:15:00
2:35 AM,50.2,32.0,50,29.71,10.0,NNW,21.9,35.7,N/A,,Overcast,330,2012-10-19 07:35:00
2:55 AM,50.0,32.0,50,29.71,10.0,NW,25.3,34.5,N/A,,Overcast,310,2012-10-19 07:55:00
3:15 AM,49.6,32.4,51,29.72,10.0,NNW,31.1,41.4,N/A,,Overcast,330,2012-10-19 08:15:00
3:35 AM,49.8,32.2,51,29.71,10.0,NW,19.6,31.1,N/A,,Overcast,320,2012-10-19 08:35:00
3:55 AM,49.5,32.7,53,29.72,10.0,NW,24.2,35.7,N/A,,Overcast,320,2012-10-19 08:55:00
4:15 AM,48.6,33.8,57,29.72,10.0,NW,25.3,33.4,N/A,,Overcast,320,2012-10-19 09:15:00
4:35 AM,48.6,33.4,56,29.72,10.0,NW,18.4,34.5,N/A,,Overcast,320,2012-10-19 09:35:00
4:55 AM,48.7,32.9,54,29.72,10.0,NNW,24.2,29.9,N/A,,Overcast,330,2012-10-19 09:55:00
5:15 AM,49.1,32.5,53,29.73,10.0,NW,18.4,29.9,N/A,,Overcast,320,2012-10-19 10:15:00
5:35 AM,49.1,32.7,53,29.73,10.0,NW,24.2,34.5,N/A,,Overcast,320,2012-10-19 10:35:00
5:55 AM,48.7,32.4,53,29.74,10.0,NW,25.3,31.1,N/A,,Overcast,320,2012-10-19 10:55:00
6:15 AM,48.6,32.9,55,29.75,10.0,NNW,28.8,38.0,N/A,,Overcast,330,2012-10-19 11:15:00
6:35 AM,48.4,32.9,55,29.76,10.0,NNW,27.6,40.3,N/A,,Overcast,330,2012-10-19 11:35:00
6:55 AM,48.2,33.1,56,29.76,10.0,NW,25.3,33.4,N/A,,Overcast,320,2012-10-19 11:55:00
7:15 AM,48.2,33.1,56,29.76,10.0,NNW,27.6,32.2,N/A,,Overcast,330,2012-10-19 12:15:00
7:35 AM,47.8,33.1,57,29.77,10.0,NNW,26.5,34.5,N/A,,Overcast,330,2012-10-19 12:35:00
7:55 AM,47.7,33.3,57,29.77,10.0,NNW,26.5,33.4,N/A,,Overcast,330,2012-10-19 12:55:00
8:15 AM,47.5,33.6,59,29.78,10.0,NNW,27.6,34.5,N/A,,Overcast,330,2012-10-19 13:15:00
8:35 AM,47.3,33.8,59,29.79,10.0,NNW,24.2,29.9,N/A,,Overcast,330,2012-10-19 13:35:00
8:55 AM,47.7,33.4,58,29.80,10.0,NW,26.5,29.9,N/A,,Overcast,320,2012-10-19 13:55:00
9:15 AM,47.8,33.3,57,29.80,10.0,NNW,27.6,35.7,N/A,,Overcast,340,2012-10-19 14:15:00
9:35 AM,48.2,33.3,56,29.80,10.0,NNW,23.0,-,N/A,,Overcast,330,2012-10-19 14:35:00
9:55 AM,48.2,33.6,57,29.81,10.0,NW,20.7,24.2,N/A,,Overcast,320,2012-10-19 14:55:00
10:15 AM,48.4,33.3,56,29.81,10.0,NNW,21.9,34.5,N/A,,Overcast,330,2012-10-19 15:15:00
10:35 AM,49.1,33.3,54,29.82,10.0,NNW,25.3,32.2,N/A,,Overcast,330,2012-10-19 15:35:00
10:55 AM,48.9,33.3,55,29.82,10.0,NNW,20.7,34.5,N/A,,Overcast,330,2012-10-19 15:55:00
11:15 AM,49.3,33.3,54,29.83,10.0,NNW,25.3,29.9,N/A,,Overcast,330,2012-10-19 16:15:00
11:35 AM,49.6,33.4,54,29.83,10.0,NNW,24.2,29.9,N/A,,Overcast,330,2012-10-19 16:35:00
11:55 AM,50.7,33.3,51,29.84,10.0,NNW,21.9,31.1,N/A,,Overcast,330,2012-10-19 16:55:00
12:15 PM,51.6,33.1,49,29.83,10.0,NW,20.7,24.2,N/A,,Overcast,320,2012-10-19 17:15:00
12:35 PM,53.2,33.3,47,29.83,10.0,NW,21.9,27.6,N/A,,Mostly Cloudy,320,2012-10-19 17:35:00
12:55 PM,54.0,32.9,45,29.83,10.0,NNW,20.7,27.6,N/A,,Mostly Cloudy,330,2012-10-19 17:55:00
1:15 PM,54.9,33.3,44,29.83,10.0,NNW,18.4,26.5,N/A,,Scattered Clouds,330,2012-10-19 18:15:00
1:35 PM,55.2,33.6,44,29.81,10.0,NNW,18.4,24.2,N/A,,Scattered Clouds,340,2012-10-19 18:35:00
1:55 PM,56.3,33.3,42,29.81,10.0,NNW,15.0,-,N/A,,Scattered Clouds,340,2012-10-19 18:55:00
2:15 PM,58.1,33.6,40,29.80,10.0,NW,16.1,-,N/A,,Scattered Clouds,310,2012-10-19 19:15:00
2:35 PM,58.3,33.4,39,29.80,10.0,WNW,18.4,25.3,N/A,,Scattered Clouds,300,2012-10-19 19:35:00
2:55 PM,56.7,33.4,42,29.80,10.0,NW,15.0,25.3,N/A,,Mostly Cloudy,320,2012-10-19 19:55:00
3:15 PM,57.7,33.3,40,29.79,10.0,NW,13.8,23.0,N/A,,Overcast,310,2012-10-19 20:15:00
3:35 PM,57.4,33.8,41,29.79,10.0,NW,16.1,21.9,N/A,,Overcast,320,2012-10-19 20:35:00
3:55 PM,57.6,33.4,40,29.79,10.0,NW,13.8,-,N/A,,Overcast,320,2012-10-19 20:55:00
4:15 PM,57.6,33.6,41,29.80,10.0,NNW,16.1,-,N/A,,Overcast,340,2012-10-19 21:15:00
4:35 PM,57.4,33.3,40,29.80,10.0,NNW,15.0,21.9,N/A,,Overcast,340,2012-10-19 21:35:00
4:55 PM,56.8,33.6,42,29.79,10.0,NW,11.5,-,N/A,,Overcast,310,2012-10-19 21:55:00
5:15 PM,57.9,34.0,41,29.79,10.0,North,9.2,-,N/A,,Overcast,360,2012-10-19 22:15:00
5:35 PM,57.4,34.2,42,29.79,10.0,North,6.9,-,N/A,,Scattered Clouds,360,2012-10-19 22:35:00
5:55 PM,56.5,33.8,42,29.79,10.0,Calm,Calm,-,N/A,,Clear,0,2012-10-19 22:55:00
6:15 PM,53.4,34.7,49,29.80,10.0,North,5.8,-,N/A,,Clear,360,2012-10-19 23:15:00
6:35 PM,51.4,34.3,52,29.80,10.0,North,4.6,-,N/A,,Clear,10,2012-10-19 23:35:00
6:55 PM,48.7,34.2,57,29.80,10.0,Calm,Calm,-,N/A,,Clear,0,2012-10-19 23:55:00
7:15 PM,49.3,34.0,56,29.81,10.0,Calm,Calm,-,N/A,,Clear,0,2012-10-20 00:15:00
7:35 PM,44.1,32.5,64,29.81,10.0,Calm,Calm,-,N/A,,Clear,0,2012-10-20 00:35:00
7:55 PM,45.5,34.7,66,29.81,10.0,NE,3.5,-,N/A,,Clear,40,2012-10-20 00:55:00
8:15 PM,44.4,34.3,68,29.82,10.0,NE,4.6,-,N/A,,Clear,40,2012-10-20 01:15:00
8:35 PM,45.1,33.6,64,29.83,10.0,Calm,Calm,-,N/A,,Clear,0,2012-10-20 01:35:00
8:55 PM,44.4,34.7,69,29.83,10.0,ENE,3.5,-,N/A,,Clear,60,2012-10-20 01:55:00
9:15 PM,43.0,35.2,74,29.83,10.0,ENE,3.5,-,N/A,,Clear,70,2012-10-20 02:15:00
9:35 PM,41.9,34.3,75,29.82,10.0,NE,3.5,-,N/A,,Clear,50,2012-10-20 02:35:00
9:55 PM,42.1,35.2,77,29.83,10.0,ENE,5.8,-,N/A,,Clear,60,2012-10-20 02:55:00
10:15 PM,41.2,35.8,81,29.83,10.0,ENE,5.8,-,N/A,,Clear,60,2012-10-20 03:15:00
10:35 PM,42.8,36.5,78,29.82,10.0,ENE,4.6,-,N/A,,Clear,60,2012-10-20 03:35:00
10:55 PM,41.9,35.8,79,29.83,10.0,Calm,Calm,-,N/A,,Clear,0,2012-10-20 03:55:00
11:15 PM,40.1,34.0,79,29.82,10.0,Calm,Calm,-,N/A,,Clear,0,2012-10-20 04:15:00
11:35 PM,39.7,35.1,83,29.81,10.0,ESE,3.5,-,N/A,,Clear,110,2012-10-20 04:35:00
11:55 PM,40.3,35.4,83,29.81,10.0,Calm,Calm,-,N/A,,Clear,0,2012-10-20 04:55:00